Location: Vancouver
(49.2500°N, 123.1330°W)
Time: 16:27:23
(UTC-07:00)

Iridium 21 - Visible Passes

Search period start: 01 September 2014 00:00
Search period end: 11 September 2014 00:00
Orbit: 776 x 779 km, 86.4° (Epoch: 01 September)

Date Brightness Start Highest point End Pass type
(mag) Time Alt. Az. Time Alt. Az. Time Alt. Az.
01 Sep 6.8 20:45:07 10° SE 20:49:03 22° ENE 20:53:01 10° NNE visible
01 Sep 6.1 22:25:24 17° SSW 22:29:22 56° W 22:34:31 10° N visible
02 Sep 5.4 21:51:33 16° S 21:55:47 87° E 22:01:02 10° N visible
02 Sep 8.1 23:34:20 10° WSW 23:37:17 15° WNW 23:40:15 10° NNW visible
03 Sep 5.7 21:17:39 12° SSE 21:22:20 51° E 21:27:22 10° NNE visible
03 Sep 7.5 22:59:08 10° SW 23:03:21 25° WNW 23:07:36 10° NNW visible
04 Sep 6.4 20:44:30 10° SE 20:48:59 30° E 20:53:29 10° NNE visible
04 Sep 6.7 22:24:41 10° SSW 22:29:34 40° W 22:34:29 10° N visible
05 Sep 7.0 20:12:18 10° ESE 20:15:45 18° ENE 20:19:13 10° NE visible
05 Sep 5.8 21:50:43 10° SSW 21:55:54 69° W 22:01:07 10° N visible
05 Sep 8.4 23:36:24 10° WNW 23:37:41 11° WNW 23:38:59 10° NW visible
06 Sep 5.5 21:17:12 10° S 21:22:22 71° E 21:27:34 10° N visible
06 Sep 8.0 23:00:07 10° WSW 23:03:40 18° WNW 23:07:15 10° NNW visible
07 Sep 6.0 20:44:06 10° SSE 20:48:57 41° E 20:53:49 10° NNE visible
07 Sep 7.3 22:25:16 10° SW 22:29:48 30° WNW 22:34:22 10° NNW visible
08 Sep 6.6 20:11:30 10° SE 20:15:39 25° E 20:19:49 10° NNE visible
08 Sep 6.4 21:51:01 10° SSW 21:56:04 50° W 22:01:08 10° N visible
09 Sep 5.5 21:17:14 10° S 21:22:27 85° W 21:27:42 10° N visible
09 Sep 8.3 23:01:31 10° W 23:04:02 14° WNW 23:06:34 10° NW visible
10 Sep 5.6 20:43:53 10° SSE 20:48:57 57° E 20:54:04 10° N visible
10 Sep 7.8 22:26:04 10° WSW 22:30:05 22° WNW 22:34:07 10° NNW visible
